Hazlehurst, GA

12:43 PM EST on November 15, 2019 (GMT -0500)
Hazlehurst

Weather History for KAZE - August, 2019

Change the Weather History Date:

Saturday, August 3, 2019

  Actual Average Record
Temperature  
Mean Temperature 83 °F -  
Max Temperature 92 °F 88 °F 96 °F (2016)
Min Temperature 74 °F 71 °F 72 °F (2018)
Cooling Degree Days 18    
Growing Degree Days 33 (Base 50)    
Moisture  
Dew Point 68 °F    
Average Humidity 64    
Maximum Humidity 87    
Minimum Humidity 38    
Precipitation  
Precipitation 0.00 in - - ()
Sea Level Pressure  
Sea Level Pressure 29.96 in    
Wind  
Wind Speed 2 mph (ENE)    
Max Wind Speed 8 mph    
Max Gust Speed -    
Visibility 10 miles    
Events      
Averages and records for this station are not official NWS values.
T = Trace of Precipitation, MM = Missing Value Source: NWS Daily Summary

Daily Weather History Graph

Daily Weather History Graph

Search for Another Location

Airport or City:

Astronomy

Aug. 03, 2019 Rise Set
Actual Time 6:47 AM EDT 8:25 PM EDT
Civil Twilight 6:20 AM EDT 8:52 PM EDT
Nautical Twilight 5:49 AM EDT 9:23 PM EDT
Astronomical Twilight 5:15 AM EDT 9:57 PM EDT
Moon 9:31 AM EDT (8/3) 10:40 PM EDT (8/3)
Length of Visible Light 14h 31m
Length of Day
13h 38m
Waxing Crescent, 10% of the Moon is Illuminated
Aug 3
Waxing Crescent
Aug 7
First Quarter
Aug 15
Full
Aug 23
Last Quarter
Aug 30
New

Hourly Weather History & Observations

Time (EDT) Temp. Heat Index Dew Point Humidity Pressure Visibility Wind Dir Wind Speed Gust Speed Precip Events Conditions
12:10 AM 77.5 °F - 68.9 °F 75% 30.01 in 10.0 mi East 4.6 mph - N/A   Mostly Cloudy
12:30 AM 77.0 °F - 69.3 °F 77% 30.01 in 10.0 mi East 3.5 mph - N/A   Mostly Cloudy
12:50 AM 77.0 °F - 69.6 °F 78% 30.01 in 10.0 mi East 4.6 mph - N/A   Overcast
1:10 AM 77.0 °F - 69.8 °F 78% 30.00 in 10.0 mi Calm Calm - N/A   Mostly Cloudy
1:30 AM 76.6 °F - 69.6 °F 79% 30.00 in 10.0 mi Calm Calm - N/A   Mostly Cloudy
1:50 AM 76.5 °F - 69.8 °F 80% 29.99 in 10.0 mi Calm Calm - N/A   Scattered Clouds
2:10 AM 76.8 °F - 69.8 °F 79% 29.99 in 10.0 mi Calm Calm - N/A   Mostly Cloudy
2:30 AM 76.5 °F - 70.2 °F 81% 29.98 in 10.0 mi Calm Calm - N/A   Mostly Cloudy
2:50 AM 76.1 °F - 70.2 °F 82% 29.98 in 10.0 mi Calm Calm - N/A   Mostly Cloudy
3:10 AM 76.1 °F - 70.3 °F 82% 29.97 in 10.0 mi East 3.5 mph - N/A   Mostly Cloudy
3:30 AM 76.3 °F - 70.3 °F 82% 29.96 in 10.0 mi Calm Calm - N/A   Overcast
3:50 AM 76.1 °F - 70.3 °F 82% 29.96 in 10.0 mi North 3.5 mph - N/A   Mostly Cloudy
4:10 AM 76.1 °F - 70.7 °F 83% 29.96 in 10.0 mi Calm Calm - N/A   Mostly Cloudy
4:30 AM 75.9 °F - 70.7 °F 84% 29.96 in 10.0 mi Calm Calm - N/A   Mostly Cloudy
4:50 AM 75.4 °F - 70.7 °F 85% 29.96 in 10.0 mi Calm Calm - N/A   Clear
5:10 AM 75.4 °F - 70.7 °F 85% 29.95 in 10.0 mi Calm Calm - N/A   Scattered Clouds
5:30 AM 75.2 °F - 70.7 °F 86% 29.95 in 10.0 mi Calm Calm - N/A   Scattered Clouds
5:50 AM 75.0 °F - 70.7 °F 86% 29.95 in 10.0 mi Calm Calm - N/A   Clear
6:15 AM 74.8 °F - 70.9 °F 87% 29.96 in 10.0 mi Calm Calm - N/A   Mostly Cloudy
6:30 AM 74.8 °F - 70.7 °F 87% 29.96 in 10.0 mi Calm Calm - N/A   Mostly Cloudy
6:50 AM 74.7 °F - 70.7 °F 87% 29.97 in 10.0 mi Calm Calm - N/A   Overcast
7:10 AM 75.0 °F - 70.5 °F 86% 29.97 in 10.0 mi Calm Calm - N/A   Overcast
7:30 AM 75.2 °F - 70.5 °F 85% 29.98 in 10.0 mi Calm Calm - N/A   Overcast
7:50 AM 75.2 °F - 70.2 °F 84% 29.98 in 10.0 mi NNE 4.6 mph - N/A   Overcast
8:10 AM 76.3 °F - 70.3 °F 82% 29.99 in 10.0 mi NNE 3.5 mph - N/A   Overcast
8:30 AM 77.0 °F - 69.8 °F 78% 29.99 in 10.0 mi East 3.5 mph - N/A   Overcast
8:50 AM 78.6 °F - 70.2 °F 75% 29.99 in 10.0 mi Calm Calm - N/A   Overcast
9:10 AM 80.8 °F 84.2 °F 70.0 °F 70% 29.99 in 10.0 mi ENE 4.6 mph - N/A   Overcast
9:30 AM 81.1 °F 84.7 °F 70.0 °F 69% 29.99 in 10.0 mi ENE 4.6 mph - N/A   Scattered Clouds
9:50 AM 82.4 °F 86.1 °F 69.6 °F 65% 29.99 in 10.0 mi East 5.8 mph - N/A   Scattered Clouds
10:10 AM 83.1 °F 86.8 °F 69.4 °F 63% 29.99 in 10.0 mi NNE 5.8 mph - N/A   Mostly Cloudy
10:50 AM 86.0 °F 89.7 °F 68.5 °F 56% 29.99 in 10.0 mi NNE 8.1 mph - N/A   Mostly Cloudy
11:10 AM 83.8 °F 87.0 °F 68.0 °F 59% 30.00 in 10.0 mi North 5.8 mph - N/A   Mostly Cloudy
11:30 AM 86.0 °F 88.8 °F 67.3 °F 53% 30.00 in 10.0 mi NE 5.8 mph - N/A   Overcast
11:50 AM 84.9 °F 87.6 °F 66.9 °F 55% 30.00 in 10.0 mi NNE 3.5 mph - N/A   Overcast
12:10 PM 85.1 °F 87.9 °F 67.5 °F 55% 30.00 in 10.0 mi Calm Calm - N/A   Overcast
12:50 PM 86.4 °F 89.4 °F 67.3 °F 53% 29.99 in 10.0 mi Calm Calm - N/A   Mostly Cloudy
1:10 PM 87.3 °F 89.8 °F 66.4 °F 50% 29.98 in 10.0 mi Calm Calm - N/A   Mostly Cloudy
1:30 PM 86.0 °F 88.8 °F 66.9 °F 53% 29.97 in 10.0 mi NNW 3.5 mph - N/A   Overcast
1:50 PM 87.1 °F 89.5 °F 66.6 °F 50% 29.97 in 10.0 mi Calm Calm - N/A   Overcast
2:10 PM 86.9 °F 89.3 °F 66.0 °F 50% 29.96 in 10.0 mi Calm Calm - N/A   Overcast
2:30 PM 87.4 °F 89.8 °F 66.2 °F 49% 29.95 in 10.0 mi Calm Calm - N/A   Mostly Cloudy
2:50 PM 88.2 °F 90.6 °F 66.4 °F 48% 29.94 in 10.0 mi East 3.5 mph - N/A   Scattered Clouds
3:10 PM 89.8 °F 92.1 °F 65.8 °F 45% 29.93 in 10.0 mi East 3.5 mph - N/A   Clear
3:30 PM 88.9 °F 90.7 °F 65.3 °F 45% 29.92 in 10.0 mi ESE 3.5 mph - N/A   Mostly Cloudy
3:50 PM 89.2 °F 91.3 °F 65.3 °F 45% 29.92 in 10.0 mi Calm Calm - N/A   Mostly Cloudy
4:10 PM 89.8 °F 91.4 °F 64.6 °F 43% 29.91 in 10.0 mi Calm Calm - N/A   Mostly Cloudy
4:30 PM 90.5 °F 92.2 °F 64.4 °F 42% 29.91 in 10.0 mi East 4.6 mph - N/A   Scattered Clouds
4:50 PM 91.2 °F 92.5 °F 63.9 °F 40% 29.90 in 10.0 mi Calm Calm - N/A   Clear
5:10 PM 92.1 °F 93.2 °F 63.5 °F 38% 29.89 in 10.0 mi ENE 5.8 mph - N/A   Clear
5:30 PM 92.8 °F 94.3 °F 63.5 °F 38% 29.89 in 10.0 mi ENE 3.5 mph - N/A   Clear
5:50 PM 91.4 °F 92.1 °F 62.8 °F 38% 29.90 in 10.0 mi Calm Calm - N/A   Clear
6:10 PM 91.4 °F 92.1 °F 62.8 °F 38% 29.90 in 10.0 mi North 3.5 mph - N/A   Clear
6:30 PM 91.4 °F 92.1 °F 62.8 °F 38% 29.90 in 10.0 mi Calm Calm - N/A   Mostly Cloudy
6:50 PM 91.2 °F 91.8 °F 62.4 °F 38% 29.90 in 10.0 mi Calm Calm - N/A   Mostly Cloudy
7:10 PM 90.3 °F 92.2 °F 64.9 °F 43% 29.90 in 10.0 mi Calm Calm - N/A   Scattered Clouds
7:30 PM 90.3 °F 91.5 °F 63.7 °F 41% 29.90 in 10.0 mi Calm Calm - N/A   Clear
7:50 PM 89.6 °F 91.5 °F 65.1 °F 44% 29.91 in 10.0 mi Calm Calm - N/A   Clear
8:10 PM 87.4 °F 89.8 °F 66.0 °F 49% 29.92 in 10.0 mi Calm Calm - N/A   Clear
8:30 PM 86.4 °F 89.0 °F 66.9 °F 52% 29.92 in 10.0 mi Calm Calm - N/A   Clear
8:50 PM 85.6 °F 88.5 °F 67.3 °F 54% 29.93 in 10.0 mi Calm Calm - N/A   Clear
9:10 PM 84.7 °F 87.9 °F 68.0 °F 57% 29.93 in 10.0 mi Calm Calm - N/A   Clear
9:30 PM 83.8 °F 87.0 °F 68.2 °F 59% 29.94 in 10.0 mi Calm Calm - N/A   Clear
9:50 PM 83.1 °F 86.3 °F 68.5 °F 61% 29.95 in 10.0 mi SE 5.8 mph - N/A   Clear
10:10 PM 82.9 °F 87.2 °F 70.7 °F 66% 29.96 in 10.0 mi SSE 4.6 mph - N/A   Clear
10:30 PM 82.4 °F 87.2 °F 71.6 °F 70% 29.96 in 10.0 mi SSE 4.6 mph - N/A   Clear
10:50 PM 81.7 °F 86.0 °F 71.6 °F 71% 29.95 in 10.0 mi SSE 5.8 mph - N/A   Clear
11:10 PM 81.7 °F 85.8 °F 70.9 °F 70% 29.95 in 10.0 mi SSE 4.6 mph - N/A   Clear
11:30 PM 81.1 °F 84.9 °F 70.7 °F 70% 29.96 in 10.0 mi South 3.5 mph - N/A   Clear
11:50 PM 80.6 °F 84.1 °F 70.5 °F 71% 29.96 in 10.0 mi SSE 3.5 mph - N/A   Clear